[[{"header":{"parameterUnit":"m.s-1","parameterCategory":1,"la1":30.2991,"la2":30.254,"lo1":-89.0895,"lo2":-89.0444,"dx":0.0017,"dy":0.0017,"nx":28,"ny":28,"refTime":"2022-11-05T15:00:00:Z","depth":0,"parameterNumber":2,"parameterNumberName":"U-component_of_WINDS"},"data":[0,0,0,0,0,0,0,0,0,0,0,0,0,0,0,0,0,0,0,0,0,0,0,0,0,0,0,0,0,0,0,0,0,0,0,0,0,0,0,0,0,0,0,0,0,0,0,0,0,0,0,0,0,0,0,0,0,0,-2.8711,-2.8711,0,-2.8677,-2.8676,-2.8676,-2.8586,-2.8585,-2.8583,-2.8581,-2.8546,-2.8547,-2.8548,0,0,0,0,0,0,0,0,0,0,0,0,0,-2.8704,-2.8704,-2.8711,-2.8711,-2.871,-2.8677,-2.8676,-2.8676,-2.8587,-2.8584,-2.8582,-2.858,-2.8546,-2.8547,-2.8548,0,0,0,0,0,0,0,0,0,0,0,0,0,-2.8692,-2.8705,-2.8711,-2.8662,-2.8657,-2.8677,-2.8676,-2.8676,-2.8587,-2.8584,-2.8582,-2.8579,-2.8546,-2.8547,-2.8548,-2.8613,0,0,-2.8552,-2.8552,0,0,0,0,0,0,0,0,-2.8693,-2.8692,-2.867,-2.8665,-2.866,-2.8633,-2.8661,-2.8655,-2.8588,-2.8614,-2.8581,-2.8578,-2.8577,-2.8576,-2.8576,-2.8611,-2.861,-2.8552,-2.8553,-2.8553,-2.8554,0,0,0,0,0,0,0,-2.8694,-2.8693,-2.8698,-2.8669,-2.8664,-2.8643,-2.8638,-2.8659,-2.8612,-2.8611,-2.8605,-2.8602,-2.8574,-2.8575,-2.8574,-2.8609,-2.8552,-2.8553,-2.8554,-2.8554,-2.8701,-2.8704,0,0,0,0,0,0,-2.8701,-2.8695,-2.8699,-2.8696,-2.867,-2.8645,-2.864,-2.8645,-2.8612,-2.8604,-2.8604,-2.8598,-2.8574,-2.8573,-2.8573,-2.8649,-2.8553,-2.8555,-2.8555,-2.8698,-2.8702,-2.8705,0,0,0,0,0,0,-2.8702,-2.8703,-2.87,-2.8694,-2.8692,-2.8648,-2.8654,-2.8645,-2.8646,-2.8606,-2.8598,-2.8613,-2.8572,-2.8571,-2.8605,-2.8646,-2.8555,-2.8556,-2.8694,-2.8699,-2.8704,-2.8801,0,0,0,0,0,0,-2.8702,-2.8703,-2.8726,-2.8695,-2.8693,-2.8732,-2.8657,-2.8647,-2.8648,-2.8639,-2.8612,-2.8605,-2.8569,-2.8603,-2.8606,-2.8646,-2.8557,-2.8691,-2.8697,-2.8702,-2.8793,-2.8808,-2.882,0,0,0,0,0,-2.8702,-2.8754,-2.8728,-2.8729,-2.872,-2.8734,-2.8733,-2.869,-2.8652,-2.8675,-2.8651,-2.8606,-2.8642,-2.8607,-2.861,-2.8651,-2.8688,-2.8695,-2.8702,-2.8787,-2.8805,-2.882,0,0,0,0,0,0,-2.879,-2.8749,-2.8719,-2.8763,-2.8753,-2.8719,-2.8747,-2.871,-2.871,-2.8702,-2.865,-2.8645,-2.8686,-2.8672,-2.8635,-2.8715,-2.8658,-2.8666,-2.8722,-2.8739,-2.8752,-2.8754,-2.8558,0,0,0,0,0,-2.8815,-2.8829,-2.8792,-2.8834,-2.8831,-2.8791,-2.8795,-2.8763,-2.8751,-2.8746,-2.8724,-2.8714,-2.8723,-2.873,-2.8736,-2.8792,-2.8786,-2.8822,-2.8835,-2.8847,-2.8854,-2.8886,-2.8902,-2.8729,-2.8729,-2.8728,0,0,-2.8865,-2.8845,-2.8856,-2.8852,-2.884,-2.8857,-2.8787,-2.8807,-2.882,-2.8749,-2.878,-2.8764,-2.875,-2.8796,-2.8815,-2.8785,-2.8901,-2.8856,-2.8865,-2.8866,-2.8895,-2.8911,-2.8926,-2.8733,-2.8732,-2.8732,0,0,-2.8966,-2.8952,-2.8986,-2.8977,-2.8962,-2.8935,-2.8944,-2.8917,-2.8904,-2.8934,-2.8883,-2.8898,-2.8914,-2.8907,-2.8906,-2.9011,-2.897,-2.9014,-2.9084,-2.9116,-2.913,-2.9142,-2.9181,-2.9195,-2.9022,-2.9022,-2.9022,0,-2.9031,-2.9054,-2.9009,-2.9033,-2.9034,-2.8973,-2.9009,-2.9003,-2.899,-2.8992,-2.896,-2.8982,-2.8968,-2.9013,-2.9039,-2.9039,-2.9049,-2.9016,-2.9131,-2.9143,-2.9153,-2.919,-2.9205,-2.9028,-2.9027,-2.9026,-2.9026,0,-2.9135,-2.9153,-2.9183,-2.9174,-2.9178,-2.9208,-2.917,-2.918,-2.915,-2.9128,-2.9162,-2.9144,-2.9147,-2.9155,-2.9125,-2.9198,-2.918,-2.9141,-2.9082,-2.9176,-2.921,-2.9223,-2.9035,-2.9033,-2.9032,-2.903,0,0,-2.9287,-2.9256,-2.9268,-2.9265,-2.9245,-2.9258,-2.9288,-2.9291,-2.9302,-2.9297,-2.9322,-2.934,-2.9304,-2.9303,-2.9272,-2.93,-2.9387,-2.9257,-2.9256,-2.9283,-2.9469,-2.9499,-2.9516,-2.9361,-2.9364,-2.9366,-2.9471,0,-2.9383,-2.943,-2.9394,-2.9448,-2.9465,-2.941,-2.9436,-2.9428,-2.941,-2.9423,-2.9402,-2.9416,-2.9367,-2.9367,-2.9392,-2.9371,-2.9424,-2.9363,-2.9385,-2.9386,-2.939,-2.9533,-2.9564,-2.9664,-2.9483,-2.9485,-2.9487,0,-2.95,-2.9502,-2.9559,-2.954,-2.9546,-2.957,-2.9572,-2.9585,-2.9577,-2.9561,-2.9563,-2.9526,-2.9556,-2.9501,-2.9542,-2.9502,-2.9509,-2.9501,-2.9504,-2.9504,-2.9442,-2.9538,-2.9694,-2.9709,-2.9507,-2.9506,-2.9504,0,-2.9607,-2.9624,-2.9661,-2.966,-2.9638,-2.9657,-2.9649,-2.9637,-2.9644,-2.9647,-2.9651,-2.9657,-2.9661,-2.9668,-2.9635,-2.9597,-2.9683,-2.9623,-2.9672,-2.9673,-2.9691,-2.9691,-2.9852,-2.9697,-2.9696,-2.9696,-2.9696,0,-2.9718,-2.9755,-2.9709,-2.9732,-2.9774,-2.9732,-2.9775,-2.9761,-2.9753,-2.9773,-2.9726,-2.9747,-2.9703,-2.972,-2.9695,-2.9735,-2.9737,-2.9726,-2.9719,-2.9731,-2.9732,-2.9734,-2.9726,-2.97,-2.9699,-2.9698,-2.9698,0,-2.9843,-2.9813,-2.9851,-2.9829,-2.9824,-2.9856,-2.9838,-2.9859,-2.9839,-2.9866,-2.987,-2.984,-2.9858,-2.9826,-2.984,-2.9824,-2.988,-2.9862,-2.9883,-2.9878,-2.9929,-2.9925,-3.0097,-3.0118,-2.9949,-2.9951,-2.9952,0,-2.9915,-2.9943,-2.9925,-2.9936,-2.9931,-2.9949,-2.9956,-2.9918,-2.9927,-2.9923,-2.9946,-2.996,-2.9969,-3.0001,-2.9981,-2.9992,-2.9975,-3.0034,-2.9976,-2.9988,-2.9977,-2.9976,-2.998,-3.0046,-3.0048,-3.005,-3.0051,0,-3.0048,-3.0033,-3.0044,-3.0053,-3.0063,-3.0067,-3.0068,-3.008,-3.004,-3.0054,-3.0072,-3.008,-3.0096,-3.0112,-3.0119,-3.0112,-3.0076,-3.007,-3.0082,-3.0094,-3.0105,-3.0101,-2.9916,-3.0066,-3.0064,-3.0063,-3.0062,-3.0062,-3.0149,-3.0173,-3.0165,-3.018,-3.0178,-3.0181,-3.0201,-3.0186,-3.02,-3.021,-3.0188,-3.0213,-3.0208,-3.0214,-3.0213,-3.0233,-3.0206,-3.0224,-3.0228,-3.0233,-3.0242,-3.0103,-3.0234,-3.0233,-3.0233,-3.0233,-3.0232,0,-3.028,-3.0273,-3.0288,-3.0292,-3.0306,-3.0272,-3.0273,-3.0287,-3.0309,-3.0308,-3.0319,-3.0343,-3.0359,-3.0342,-3.0356,-3.0376,-3.036,-3.0381,-3.0379,-3.0378,-3.0263,-3.0252,-3.0394,-3.0394,-3.0394,-3.0393,-3.0393,-3.0393,-3.0349,-3.0388,-3.0374,-3.0412,-3.0406,-3.043,-3.0434,-3.0438,-3.0437,-3.0465,-3.0479,-3.0468,-3.0462,-3.0476,-3.049,-3.0485,-3.0493,-3.052,-3.0509,-3.0402,-3.0386,-3.0371,-3.036,-3.0522,-3.0522,-3.0622,-3.0623,-3.0624]},{"header":{"parameterUnit":"m.s-1","parameterCategory":1,"la1":30.2991,"la2":30.254,"lo1":-89.0895,"lo2":-89.0444,"dx":0.0017,"dy":0.0017,"nx":28,"ny":28,"refTime":"2022-11-05T15:00:00:Z","depth":0,"parameterNumber":3,"parameterNumberName":"V-component_of_WINDS"},"data":[0,0,0,0,0,0,0,0,0,0,0,0,0,0,0,0,0,0,0,0,0,0,0,0,0,0,0,0,0,0,0,0,0,0,0,0,0,0,0,0,0,0,0,0,0,0,0,0,0,0,0,0,0,0,0,0,0,0,1.4183,1.4183,0,1.4217,1.4217,1.4217,1.4283,1.4285,1.4286,1.4287,1.4317,1.4316,1.4316,0,0,0,0,0,0,0,0,0,0,0,0,0,1.4173,1.4173,1.4183,1.4183,1.4184,1.4217,1.4217,1.4217,1.4283,1.4285,1.4286,1.4288,1.4317,1.4316,1.4316,0,0,0,0,0,0,0,0,0,0,0,0,0,1.4189,1.4173,1.4183,1.4221,1.4224,1.4216,1.4217,1.4218,1.4283,1.4285,1.4287,1.4289,1.4317,1.4316,1.4316,1.4272,0,0,1.4314,1.4313,0,0,0,0,0,0,0,0,1.4188,1.4189,1.4215,1.4218,1.4222,1.4248,1.4225,1.4236,1.4282,1.426,1.4287,1.429,1.4292,1.4293,1.4295,1.4273,1.4275,1.4314,1.4313,1.4313,1.4313,0,0,0,0,0,0,0,1.4187,1.4188,1.4196,1.4215,1.422,1.4235,1.424,1.4227,1.4264,1.4263,1.4267,1.4271,1.4294,1.4296,1.4296,1.4275,1.4314,1.4313,1.4313,1.4312,1.4221,1.422,0,0,0,0,0,0,1.4181,1.4187,1.4195,1.4197,1.421,1.4234,1.4239,1.4238,1.4265,1.4271,1.4269,1.4274,1.4296,1.4297,1.4298,1.4249,1.4313,1.4312,1.4312,1.4223,1.4221,1.4219,0,0,0,0,0,0,1.418,1.4181,1.4194,1.4193,1.4196,1.4232,1.423,1.4237,1.4239,1.427,1.4277,1.4264,1.4297,1.4299,1.4279,1.4251,1.4312,1.4311,1.4226,1.4223,1.422,1.4151,0,0,0,0,0,0,1.418,1.418,1.4164,1.4193,1.4196,1.4174,1.4228,1.4236,1.4238,1.4244,1.4267,1.4272,1.4299,1.4279,1.4278,1.4251,1.4311,1.4228,1.4224,1.4221,1.4155,1.4146,1.4137,0,0,0,0,0,1.4179,1.4142,1.4163,1.4164,1.4177,1.4173,1.4175,1.4208,1.4235,1.4219,1.424,1.4271,1.4255,1.4277,1.4276,1.4248,1.423,1.4226,1.4221,1.416,1.4148,1.4137,0,0,0,0,0,0,1.4106,1.4146,1.417,1.4141,1.4153,1.4184,1.4164,1.4194,1.4197,1.4202,1.4242,1.4247,1.4222,1.4234,1.4257,1.4209,1.4248,1.4243,1.4201,1.419,1.4181,1.4177,1.431,0,0,0,0,0,1.4088,1.4082,1.4117,1.4087,1.4093,1.4128,1.4127,1.4152,1.4166,1.417,1.419,1.42,1.4198,1.4195,1.4194,1.4159,1.4165,1.414,1.413,1.4123,1.4117,1.41,1.4089,1.4204,1.4204,1.4204,0,0,1.4047,1.4068,1.4062,1.4074,1.4086,1.4079,1.4131,1.412,1.4115,1.4168,1.4151,1.4166,1.4181,1.4153,1.4142,1.4162,1.4088,1.4117,1.4111,1.4109,1.4094,1.4083,1.4074,1.4201,1.4201,1.4202,0,0,1.397,1.3985,1.3963,1.3976,1.3996,1.402,1.4015,1.4042,1.4054,1.4038,1.4079,1.4073,1.4068,1.4077,1.4081,1.4012,1.4041,1.4011,1.3961,1.3945,1.3935,1.3928,1.3902,1.3893,1.4006,1.4006,1.4005,0,1.3916,1.3908,1.3948,1.3936,1.394,1.3991,1.3969,1.3979,1.3996,1.3998,1.4021,1.4018,1.4031,1.4007,1.3991,1.3992,1.3987,1.4007,1.3934,1.3926,1.392,1.3896,1.3886,1.4002,1.4002,1.4003,1.4003,0,1.3841,1.3835,1.3815,1.3833,1.3836,1.3818,1.3856,1.3853,1.388,1.3901,1.3885,1.3904,1.3909,1.3906,1.393,1.3885,1.3898,1.3927,1.3966,1.3904,1.3883,1.3874,1.3996,1.3998,1.3999,1.4,0,0,1.3714,1.3759,1.375,1.376,1.3787,1.3783,1.3769,1.3776,1.3773,1.3784,1.3773,1.377,1.3798,1.3803,1.3829,1.3815,1.3759,1.3846,1.3847,1.3828,1.3711,1.3687,1.3676,1.378,1.3778,1.3777,1.3709,0,1.3641,1.362,1.3658,1.3628,1.3623,1.3674,1.3662,1.3677,1.3698,1.3697,1.372,1.3716,1.3754,1.3758,1.3746,1.3768,1.3735,1.3774,1.3768,1.3767,1.376,1.3665,1.3639,1.3574,1.3701,1.37,1.3699,0,1.3552,1.3562,1.3532,1.3564,1.3563,1.3551,1.3562,1.3561,1.3579,1.3596,1.3603,1.3636,1.3624,1.3665,1.3649,1.3675,1.3676,1.3686,1.3685,1.3683,1.3727,1.3659,1.3554,1.3543,1.3686,1.3687,1.3688,0,1.3461,1.3467,1.345,1.3457,1.3494,1.3485,1.3499,1.3521,1.3524,1.3533,1.3535,1.3543,1.3546,1.3551,1.3585,1.3612,1.3565,1.3609,1.3577,1.3576,1.3562,1.3562,1.3454,1.3566,1.3566,1.3566,1.3567,0,1.3374,1.3353,1.341,1.3399,1.3379,1.3423,1.3401,1.3421,1.344,1.3434,1.3479,1.3472,1.3518,1.3516,1.3543,1.3526,1.3527,1.3539,1.3546,1.3534,1.3532,1.3533,1.3537,1.3564,1.3564,1.3565,1.3565,0,1.3267,1.3305,1.329,1.3328,1.3337,1.3319,1.3351,1.3343,1.3369,1.3361,1.3361,1.3401,1.3401,1.3437,1.3444,1.3462,1.3433,1.3449,1.3427,1.3431,1.3397,1.3399,1.3284,1.3271,1.3393,1.3392,1.3391,0,1.3208,1.3194,1.3231,1.3231,1.3245,1.3244,1.3248,1.3293,1.3295,1.3318,1.3306,1.3312,1.3317,1.3316,1.3344,1.3351,1.3366,1.3326,1.3367,1.3356,1.3364,1.3363,1.3362,1.3315,1.3314,1.3313,1.3312,0,1.3098,1.3119,1.3124,1.3136,1.314,1.3151,1.3165,1.3163,1.3212,1.3212,1.3215,1.3219,1.3229,1.3233,1.3245,1.326,1.3293,1.3299,1.3292,1.3278,1.3265,1.327,1.3401,1.33,1.3302,1.3302,1.3303,1.3303,1.3012,1.3003,1.3029,1.3033,1.3049,1.3062,1.3057,1.3084,1.3087,1.3099,1.3126,1.3124,1.3146,1.3167,1.3179,1.3178,1.3198,1.3188,1.3185,1.3181,1.3174,1.3268,1.318,1.3181,1.3181,1.3181,1.3182,0,1.2904,1.2925,1.2929,1.2948,1.2952,1.2988,1.3006,1.3006,1.3005,1.3024,1.303,1.3033,1.3039,1.307,1.3078,1.3072,1.3087,1.3072,1.3072,1.3074,1.3156,1.3161,1.3059,1.3059,1.3059,1.3059,1.3059,1.3059,1.2848,1.2834,1.2858,1.2853,1.2873,1.2874,1.2881,1.2893,1.2909,1.2911,1.2917,1.2938,1.2962,1.2974,1.298,1.2989,1.2989,1.2969,1.2982,1.3057,1.3069,1.308,1.3084,1.2969,1.2969,1.2901,1.29,1.29]}]]